Location: Hoyos del Collado
(40.3594°N, 5.2003°W)
Time: 13:21:57
(UTC+00:00)

ISS - Pass Details

Date: 27 June 2024
Orbit: 410 x 424 km, 51.6° (Epoch: 13 July)

Event Time Altitude Azimuth Distance (km) Brightness Sun altitude
Exits shadow 03:20:06 16° 274° (W) 1,166 -1.9 -14.3°
Maximum altitude 03:22:14 32° 332° (NNW) 729 -2.4 -14.0°
Drops below altitude 10° 03:25:19 10° 38° (NE) 1,494 0.5 -13.6°
Sets 03:27:33 0° 49° (NE) 2,364 2.0 -13.3°
